| time (UTC) | temp C | wind direction | speed KPH | gust KPH | rain 1hr cm | rain 24hr cm | rain mn cm | humidity % | barometer mb |
| 20260502210037 | 21 | 351 | 14.5 | 29.0 | 0.00 | 1.65 | 0.43 | 52 | 1016.4 |
| 20260502204541 | 22 | 302 | 9.7 | 24.1 | 0.00 | 2.29 | 0.43 | 53 | 1016.6 |
| 20260502203039 | 22 | 340 | 9.7 | 29.0 | 0.00 | 2.29 | 0.43 | 55 | 1016.9 |
| 20260502201535 | 21 | 350 | 12.9 | 30.6 | 0.00 | 2.29 | 0.43 | 55 | 1017.0 |
| 20260502200034 | 21 | 333 | 11.3 | 30.6 | 0.00 | 2.29 | 0.43 | 54 | 1017.0 |
| 20260502194541 | 22 | 338 | 11.3 | 32.2 | 0.00 | 5.00 | 0.43 | 55 | 1017.2 |
| 20260502193033 | 21 | 314 | 12.9 | 32.2 | 0.00 | 5.00 | 0.43 | 56 | 1017.2 |
| 20260502191535 | 21 | 340 | 17.7 | 32.2 | 0.00 | 5.00 | 0.43 | 55 | 1017.2 |
| 20260502190040 | 21 | 360 | 14.5 | 29.0 | 0.00 | 5.00 | 0.43 | 61 | 1017.4 |
| 20260502184548 | 21 | 9 | 17.7 | 37.0 | 0.00 | 6.40 | 0.43 | 61 | 1017.3 |
| 20260502183047 | 21 | 66 | 11.3 | 33.8 | 0.00 | 6.40 | 0.43 | 66 | 1017.4 |
| 20260502181538 | 21 | 24 | 11.3 | 25.7 | 0.00 | 6.40 | 0.43 | 68 | 1017.7 |
| 20260502163042 | 19 | 11 | 11.3 | 29.0 | 0.00 | 8.61 | 0.43 | 76 | 1018.4 |
| 20260502161534 | 18 | 350 | 14.5 | 24.1 | 0.00 | 8.61 | 0.43 | 77 | 1018.2 |
| 20260502151540 | 17 | 62 | 9.7 | 24.1 | 0.00 | 8.61 | 0.43 | 83 | 1018.0 |
| 20260502123030 | 12 | 34 | 9.7 | 24.1 | 0.00 | 8.61 | 0.43 | 92 | 1015.8 |
| 20260502121536 | 12 | 13 | 8.0 | 19.3 | 0.00 | 8.61 | 0.43 | 92 | 1015.7 |
| 20260502114547 | 12 | 32 | 6.4 | 14.5 | 0.00 | 8.61 | 0.43 | 91 | 1015.2 |
| 20260502113040 | 12 | 5 | 8.0 | 16.1 | 0.00 | 8.61 | 0.43 | 90 | 1015.0 |
| 20260502111536 | 12 | 325 | 9.7 | 20.9 | 0.00 | 8.61 | 0.43 | 90 | 1015.1 |
| 20260502110038 | 12 | 38 | 8.0 | 17.7 | 0.00 | 8.61 | 0.43 | 90 | 1015.0 |
| 20260502104541 | 12 | 5 | 8.0 | 24.1 | 0.00 | 8.61 | 0.43 | 91 | 1014.8 |
| 20260502103037 | 12 | 328 | 11.3 | 24.1 | 0.00 | 8.61 | 0.43 | 91 | 1014.8 |
| 20260502101558 | 12 | 318 | 8.0 | 24.1 | 0.00 | 8.61 | 0.43 | 92 | 1014.6 |
| 20260502070052 | 12 | 311 | 6.4 | 24.1 | 0.05 | 8.59 | 0.41 | 97 | 1013.6 |
| 20260502064534 | 12 | 5 | 11.3 | 22.5 | 0.10 | 8.56 | 0.38 | 97 | 1013.4 |
| 20260502063038 | 12 | 5 | 8.0 | 17.7 | 0.20 | 8.56 | 0.38 | 97 | 1013.9 |
| 20260502061530 | 12 | 40 | 9.7 | 16.1 | 0.36 | 8.56 | 0.38 | 97 | 1013.6 |
| 20260502060030 | 12 | 55 | 6.4 | 14.5 | 0.36 | 8.53 | 0.36 | 97 | 1013.9 |
| 20260502054534 | 12 | 38 | 4.8 | 20.9 | 0.28 | 8.46 | 0.28 | 97 | 1014.5 |
| 20260502053044 | 12 | 352 | 12.9 | 29.0 | 0.25 | 8.36 | 0.18 | 97 | 1013.5 |
| 20260502051534 | 12 | 351 | 9.7 | 19.3 | 0.20 | 8.20 | 0.03 | 97 | 1013.5 |
| 20260502050040 | 12 | 5 | 12.9 | 25.7 | 0.23 | 8.18 | 0.00 | 97 | 1013.0 |
| 20260502044536 | 13 | 355 | 12.9 | 24.1 | 0.23 | 8.15 | 8.15 | 96 | 1013.4 |
| 20260502043036 | 13 | 323 | 9.7 | 20.9 | 0.18 | 8.10 | 8.10 | 96 | 1013.5 |
| 20260502041535 | 13 | 14 | 12.9 | 25.7 | 0.10 | 8.00 | 8.00 | 96 | 1013.4 |
| 20260502040041 | 13 | 355 | 11.3 | 20.9 | 0.05 | 7.95 | 7.95 | 96 | 1013.6 |
| 20260502034536 | 13 | 316 | 9.7 | 29.0 | 0.03 | 7.92 | 7.92 | 96 | 1013.3 |
| 20260502033035 | 13 | 25 | 12.9 | 33.8 | 0.03 | 7.92 | 7.92 | 96 | 1013.0 |
| 20260502031537 | 13 | 11 | 14.5 | 30.6 | 0.00 | 7.90 | 7.90 | 96 | 1012.7 |
| 20260502030034 | 13 | 32 | 14.5 | 32.2 | 0.00 | 7.90 | 7.90 | 97 | 1012.7 |
| 20260502024535 | 13 | 26 | 11.3 | 30.6 | 0.00 | 7.90 | 7.90 | 97 | 1012.7 |
| 20260502023039 | 13 | 46 | 12.9 | 27.4 | 0.00 | 7.90 | 7.90 | 97 | 1012.2 |
| 20260502021536 | 14 | 37 | 9.7 | 19.3 | 0.00 | 7.90 | 7.90 | 97 | 1012.1 |
| 20260502020039 | 13 | 50 | 9.7 | 20.9 | 0.00 | 7.90 | 7.90 | 98 | 1011.9 |
| 20260502014530 | 13 | 54 | 11.3 | 32.2 | 0.00 | 7.90 | 7.90 | 98 | 1011.8 |
| 20260502013051 | 14 | 21 | 12.9 | 27.4 | 0.00 | 7.90 | 7.90 | 98 | 1011.3 |
| 20260502011535 | 14 | 99 | 8.0 | 19.3 | 0.00 | 7.90 | 7.90 | 98 | 1010.8 |
| 20260502010035 | 14 | 11 | 9.7 | 25.7 | 0.00 | 7.90 | 7.90 | 98 | 1009.9 |
| 20260502004537 | 14 | 340 | 11.3 | 27.4 | 0.05 | 7.90 | 7.90 | 98 | 1009.3 |
| 20260502003036 | 14 | 360 | 12.9 | 24.1 | 0.18 | 7.90 | 7.90 | 98 | 1007.9 |
| 20260502001545 | 14 | 49 | 14.5 | 24.1 | 0.33 | 7.90 | 7.90 | 98 | 1007.9 |
| 20260502000036 | 14 | 78 | 11.3 | 20.9 | 0.53 | 7.90 | 7.90 | 98 | 1009.1 |
| 20260501234538 | 14 | 76 | 6.4 | 19.3 | 0.53 | 7.85 | 7.85 | 98 | 1010.7 |
| 20260501233042 | 14 | 24 | 8.0 | 17.7 | 0.41 | 7.70 | 7.70 | 98 | 1011.2 |
| 20260501231535 | 14 | 55 | 11.3 | 20.9 | 0.28 | 7.54 | 7.54 | 98 | 1011.1 |
| 20260501230037 | 14 | 37 | 6.4 | 22.5 | 0.10 | 7.37 | 7.37 | 98 | 1011.2 |
| 20260501224533 | 14 | 35 | 12.9 | 29.0 | 0.05 | 7.32 | 7.32 | 98 | 1010.6 |
| 20260501223030 | 14 | 80 | 16.1 | 30.6 | 0.08 | 7.29 | 7.29 | 98 | 1009.6 |
| 20260501221533 | 15 | 9 | 11.3 | 27.4 | 0.20 | 7.26 | 7.26 | 98 | 1010.7 |
| 20260501220107 | 15 | 25 | 8.0 | 24.1 | 0.30 | 7.26 | 7.26 | 99 | 1010.8 |
| 20260501214538 | 15 | 57 | 11.3 | 20.9 | 0.43 | 7.26 | 7.26 | 99 | 1010.0 |
| 20260501213034 | 15 | 5 | 11.3 | 24.1 | 0.48 | 7.21 | 7.21 | 98 | 1010.1 |
| 20260501211531 | 15 | 43 | 9.7 | 24.1 | 0.51 | 7.06 | 7.06 | 98 | 1009.9 |